Voltar ao catálogo

STARLINK-34852

AtivoComunicaçõesVLEO
NORAD 66135·PAYLOAD·🇺🇸 United States

Lançado Oct 22, 2025 de Vandenberg Space Force Base

Loading…

Próximas Passagens (próximas 24 horas)

TLE

AtualizadoSource: CelesTrak SupGP

Época: Sep 14, 2026, 15:10 UTC

1 66135C 25237X   26257.63243056 -.00098207  00000+0 -29003-2 0  2571
2 66135  53.1585 240.8868 0001278  76.3780 304.7415 15.34453372    17

Acompanhe STARLINK-34852 em tempo real com AllMySat

Download on the App Store